Tracking 19817 objects as of 20-Aug-2019
HD Live streaming from Space Station
objects crossing your sky now

TITAN 3C TRANSTAGE R/B

Track TITAN 3C TRANSTAGE R/B now!


NORAD ID: 11560
Int'l Code: 1979-086C
Perigee: 30,194.3 km
Apogee: 41,726.3 km
Inclination: 6.3 °
Period: 1,444.6 minutes
Semi major axis: 42331 km
RCS: Unknown
Launch date: October 1, 1979
Source: United States (US)
Launch site: AIR FORCE EASTERN TEST RANGE (AFETR)

Note: This is a ROCKET BODY
aabbcc
Your satellite tracking list
Your tracking list is empty




NASA's NSSDC Master Catalog

Two Line Element Set (TLE):
1 11560U 79086C   19231.25888711 -.00000333  00000-0  00000+0 0  9998
2 11560   6.3179 352.3161 1362109 101.7736 273.9142  0.99680463  1373
Source of the keplerian elements: McCants